Regional Weather Roundup
Issued by NWS

Home | Current Version | Previous Version | Graphics & Text | Print | Product List | Glossary On
Versions: 1 2 3 4 5 6 7 8 9 10 11 12 13 14 15 16 17 18 19 20 21 22 23 24 25 26 27
000
ASUS45 KBOU 281207
RWRCO

WEATHER ROUNDUP FOR COLORADO
NATIONAL WEATHER SERVICE DENVER/BOULDER CO
600 AM MDT FRI JUL 28 2017

NOTE: "FAIR" INDICATES FEW OR NO CLOUDS BELOW 12000 FEET WITH NO
SIGNIFICANT WEATHER AND/OR OBSTRUCTIONS TO VISIBILITY.

COZ001>005-013-030-031-281300-
...NORTHWEST COLORADO...

CITY           SKY/WX    TMP DP  RH WIND       PRES   REMARKS
CRAIG          FAIR      52  49  89 CALM      30.26R
HAYDEN         FAIR      55  45  67 E8        30.28R
MEEKER         FAIR      53  49  86 CALM      30.27R
RABBIT EARS PA FAIR      52  41  66 W8        30.55S
STEAMBOAT SPGS FAIR      49  47  92 CALM      30.31R
WALDEN         CLOUDY    46  41  81 SE5       30.39S
$$

COZ006>008-011-281300-
...WEST CENTRAL VALLEYS...

CITY           SKY/WX    TMP DP  RH WIND       PRES   REMARKS
GRAND JUNCTION FAIR      68  54  60 CALM      30.11R
MONTROSE       MOCLDY    69  52  54 SE10      30.19R
EAGLE          FAIR      55  48  77 CALM      30.31R
RIFLE          FAIR      62  53  72 CALM      30.18R
DELTA          FAIR      66  53  62 N3        30.16R
NUCLA          CLOUDY    66  50  55 E12       30.26R
$$

COZ017>023-064>068-281300-
...SOUTHWEST COLORADO...

CITY           SKY/WX    TMP DP  RH WIND       PRES   REMARKS
DURANGO        CLOUDY    61  57  87 CALM      30.28S
CORTEZ         MOCLDY    65  57  75 CALM      30.23R
PAGOSA SPRINGS FAIR      60  56  89 CALM      30.36F
TELLURIDE      FAIR      58  49  72 CALM      30.46S
WOLF CREEK PAS MOCLDY    45  45 100 CALM      30.69S
$$

COZ009-010-012-014-032>034-037-058>063-281300-
...CENTRAL COLORADO...

CITY           SKY/WX    TMP DP  RH WIND       PRES   REMARKS
ASPEN          FAIR      54  47  77 CALM      30.34R
BUENA VISTA    CLOUDY    56  50  79 N8        30.38R
COPPER MTN     FAIR      54  39  58 CALM      30.67R
BERTHOUD PASS  FAIR      43  32  65 NW12      30.70R
COTTONWOOD PAS FAIR      59  45  58 S3        30.50R
GUNNISON       FAIR      54  50  86 NE5       30.37R
KREMMLING      FAIR      54  50  87 CALM      30.37R
LEADVILLE      FAIR      43  41  93 NE7       30.50R
MONARCH PASS   FAIR      50  37  62 SW6       30.75R
SALIDA         CLOUDY    58  53  82 CALM      30.42R
SUNLIGHT       FAIR      52  41  66 E3        30.59R
WILKERSON PASS FAIR      54  37  54 NW6       30.63S
$$

COZ069>075-281300-
...SAN LUIS VALLEY/SANGRE DE CRISTO MOUNTAINS...

CITY           SKY/WX    TMP DP  RH WIND       PRES   REMARKS
ALAMOSA        FAIR      53  52  96 SE7       30.34R
DEL NORTE      FAIR      57  51  79 CALM      30.38R
LA VETA PASS   NOT AVBL
SAGUACHE         N/A    N/A N/A N/A MISG        N/A
$$

COZ035-036-038>040-281300-
...NORTHERN COLORADO FRONT RANGE...

CITY           SKY/WX    TMP DP  RH WIND       PRES   REMARKS
DENVER INTL AP FAIR      64  58  80 W7        30.14R
DMNS CITY PARK   N/A     64  55  73 W1G8      30.15R
AURORA         PTCLDY    63  55  73 W7        30.17R
FRONT RANGE AP FAIR      63  54  72 W9        30.15R
ERIE MUNI ARPT FAIR      59  56  92 CALM      30.13S
BOULDER MUN AP FAIR      64  54  68 CALM      30.14R
CENTENNIAL     FAIR      66  53  63 W6        30.17R
BROOMFIELD     FAIR      64  55  72 N7        30.16S
FORT COLLINS   FAIR      62  60  93 NE10      30.14R
LONGMONT       FAIR      60  54  79 N3        30.15R
$$

COZ041-046-047-076>085-087-088-281300-
...PIKES PEAK/PALMER DIVIDE AND SOUTHERN FOOTHILLS...

CITY           SKY/WX    TMP DP  RH WIND       PRES   REMARKS
COLO. SPRINGS  MOCLDY    66  62  87 NE3       30.21S
A. F. ACADEMY  MOCLDY    63  63  99 CALM      30.23R
SCHRIEVER AFB  FOG       63  62  97 N3        30.23R VSB 1/4
CHEYENNE MTN     N/A     61  59  94 CALM      30.21S FOG
ELLICOTT       CLOUDY   N/A N/A N/A SE8       30.21R
FALCON           N/A     61  60  98 W8        30.26S FOG
FORT CARSON    CLOUDY    64  64 100 E5        30.19R FOG
LIMON          FOG       64  64 100 S15       30.18R VSB 1/4
MONUMENT HILL  MOCLDY    59  55  88 SW7       30.27S
CANON CITY     CLEAR     68  59  73 W5        30.16R
WALSENBURG     FAIR      59  57  94 W9        30.22R
TRINIDAD       FAIR      62  52  69 NW8       30.19S
$$

COZ042>045-048>051-090-091-281300-
...NORTHEAST COLORADO...

CITY           SKY/WX    TMP DP  RH WIND       PRES   REMARKS
GREELEY ARPT   FAIR      65  63  93 NE8       30.12R
AKRON          FAIR      63  60  90 E9        30.13R FOG
BURLINGTON     FOG       64  64 100 S13       30.12R VSB 1/4
WRAY           NOT AVBL
YUMA           CLOUDY    63  54  72 E9        30.12S
STERLING       CLOUDY    64  63  94 E6        30.10R
HOLYOKE        MOCLDY    64  61  88 SE7       30.10S
FORT MORGAN    MOCLDY    64  62  91 E7        30.11R
$$

COZ086-089-092>099-281300-
...SOUTHEAST COLORADO...

CITY           SKY/WX    TMP DP  RH WIND       PRES   REMARKS
PUEBLO         FAIR      68  66  93 E3        30.12R
LA JUNTA       FAIR      66  65  96 E7        30.10R FOG
LAMAR          FAIR      68  66  93 E5        30.09R FOG
SPRINGFIELD      N/A     64  64 100 SE7       30.15R
$$




USA.gov is the U.S. government's official web portal to all federal, state and local government web resources and services.